Wilmington, OH

1:36 AM EST on January 24, 2018 (GMT -0500)
Airborne

Weather History for KILN - January, 2012

Change the Weather History Date:

Monday, January 16, 2012

  Actual Average (KFFO) Record (KFFO)
Temperature  
Mean Temperature 36 °F -  
Max Temperature 46 °F 32 °F 53 °F (2006)
Min Temperature 25 °F 16 °F -13 °F (2009)
Degree Days  
Heating Degree Days 30    
Moisture  
Dew Point 30 °F    
Average Humidity 74    
Maximum Humidity 89    
Minimum Humidity 60    
Precipitation  
Precipitation 0.01 in - - ()
Sea Level Pressure  
Sea Level Pressure 30.14 in    
Wind  
Wind Speed 13 mph (South)    
Max Wind Speed 21 mph    
Max Gust Speed 28 mph    
Visibility 10 miles    
Events Rain    
Averages and records for this station are not official NWS values.
T = Trace of Precipitation, MM = Missing Value Source: NWS Daily Summary

Daily Weather History Graph

Daily Weather History Graph

Search for Another Location

Airport or City:

Trip Planner

Search our weather history database for the weather conditions in past years. The results will help you decide how hot, cold, wet, or windy it might be!

Date:

Astronomy

Jan. 16, 2012 Rise Set
Actual Time 7:53 AM EST 5:36 PM EST
Civil Twilight 7:24 AM EST 6:05 PM EST
Nautical Twilight 6:50 AM EST 6:38 PM EST
Astronomical Twilight 6:18 AM EST 7:11 PM EST
Moon 1:01 AM EST (1/16) 11:49 AM EST (1/16)
Length of Visible Light 10h 41m
Length of Day
9h 43m
Waning Gibbous, 46% of the Moon is Illuminated
Jan 16
Waning Gibbous
Jan 23
New
Jan 30
First Quarter
Feb 7
Full
Feb 14
Last Quarter

Hourly Weather History & Observations

Time (EST) Temp. Windchill Dew Point Humidity Pressure Visibility Wind Dir Wind Speed Gust Speed Precip Events Conditions
12:54 AM 25.0 °F 15.5 °F 19.9 °F 81% 30.35 in 10.0 mi SSE 9.2 mph - N/A   Clear
1:54 AM 26.1 °F 16.8 °F 19.9 °F 78% 30.32 in 10.0 mi SSE 9.2 mph - N/A   Clear
2:54 AM 27.0 °F 17.3 °F 21.0 °F 78% 30.31 in 10.0 mi SSE 10.4 mph - N/A   Clear
3:54 AM 26.1 °F 18.4 °F 21.0 °F 81% 30.30 in 10.0 mi South 6.9 mph - N/A   Clear
4:54 AM 28.0 °F 18.1 °F 21.0 °F 75% 30.29 in 10.0 mi South 11.5 mph - N/A   Clear
5:54 AM 28.9 °F 19.2 °F 21.0 °F 72% 30.27 in 10.0 mi South 11.5 mph - N/A   Clear
6:54 AM 30.0 °F 20.0 °F 21.9 °F 72% 30.25 in 10.0 mi South 12.7 mph - N/A   Clear
7:54 AM 33.1 °F 22.6 °F 23.0 °F 66% 30.23 in 10.0 mi South 16.1 mph - N/A   Scattered Clouds
8:54 AM 37.0 °F 27.4 °F 25.0 °F 62% 30.20 in 10.0 mi SSW 17.3 mph 24.2 mph N/A   Overcast
9:54 AM 39.0 °F 30.3 °F 26.1 °F 60% 30.19 in 10.0 mi SSW 16.1 mph 24.2 mph N/A   Overcast
10:54 AM 41.0 °F 32.2 °F 28.0 °F 60% 30.17 in 10.0 mi South 18.4 mph - N/A   Overcast
11:54 AM 42.1 °F 34.5 °F 28.9 °F 60% 30.14 in 10.0 mi SSW 15.0 mph - N/A   Overcast
12:54 PM 41.0 °F 31.6 °F 36.0 °F 82% 30.11 in 10.0 mi SSW 20.7 mph 27.6 mph 0.00 in   Overcast
1:54 PM 42.1 °F 33.1 °F 39.0 °F 89% 30.08 in 10.0 mi SSW 20.7 mph 27.6 mph 0.01 in   Overcast
2:54 PM 43.0 °F 34.5 °F 39.0 °F 86% 30.05 in 10.0 mi SSW 19.6 mph 24.2 mph 0.00 in   Overcast
3:54 PM 45.0 °F 37.1 °F 37.0 °F 74% 30.03 in 10.0 mi SSW 19.6 mph 25.3 mph N/A   Overcast
4:54 PM 45.0 °F 37.6 °F 37.0 °F 74% 30.02 in 10.0 mi SSW 17.3 mph - N/A   Overcast
5:54 PM 45.0 °F 38.5 °F 37.0 °F 74% 30.01 in 10.0 mi SSW 13.8 mph - N/A   Overcast
6:54 PM 45.0 °F 38.9 °F 36.0 °F 71% 30.00 in 10.0 mi South 12.7 mph - N/A   Overcast
7:54 PM 46.0 °F 39.6 °F 39.0 °F 76% 29.99 in 10.0 mi SSW 15.0 mph 24.2 mph N/A   Overcast
9:54 PM 46.9 °F - 39.0 °F 74% 29.97 in 10.0 mi South 13.8 mph - 0.00 in   Overcast
10:54 PM 46.9 °F - 39.9 °F 77% 29.96 in 10.0 mi South 12.7 mph - 0.00 in Rain Light Rain
11:54 PM 46.9 °F - 41.0 °F 80% 29.95 in 10.0 mi South 9.2 mph - 0.00 in Rain Light Rain